Simultaneous Nadir Overpasses (SNOs) Predictions

Prediction of SNOs between FY3D and NOAA-19 Satellite Orbit:

Table of predicted SNOs for the next 14.0 days since TLE Epoch: 8/17/2024
Index Date (FY3D) Time (FY3D) Lat,Lon (FY3D) SZA (FY3D ) Date (NOAA-19) Time (NOAA-19) Lat,Lon (NOAA-19) SZA (NOAA-19 ) Distance(km) Time Diff (sec)
1 08/19/2024 16:40:45 75.94, -69.51 63.41 08/19/2024 16:39:32 75.92, -70.13 63.39 16.94 73
2 08/19/2024 17:31:31 -76.03, 97.48 116.49 08/19/2024 17:30:28 -76.03, 97.53 116.49 1.25 63
3 08/19/2024 18:22:18 76.05, -95.28 63.55 08/19/2024 18:21:27 76.04, -95.18 63.54 3.05 51
4 08/19/2024 19:13:02 -76.05, 72.03 116.44 08/19/2024 19:12:25 -76.06, 72.15 116.44 3.31 37
5 08/19/2024 20:03:48 76.03,-120.57 63.55 08/19/2024 20:03:25 76.02,-120.72 63.55 4.09 23
6 08/19/2024 20:54:33 -76.07, 46.58 116.40 08/19/2024 20:54:23 -76.05, 46.62 116.42 3.25 10
7 08/19/2024 21:45:18 76.05,-146.02 63.59 08/19/2024 21:45:21 76.05,-146.10 63.60 2.08 3
8 08/19/2024 22:36:02 -76.05, 21.29 116.40 08/19/2024 22:36:19 -76.08, 21.25 116.37 3.28 17
9 08/19/2024 23:26:49 76.07,-171.48 63.64 08/19/2024 23:27:18 76.09,-171.47 63.65 1.55 29
10 08/20/2024 00:17:33 -76.07, -4.16 116.35 08/20/2024 00:18:17 -76.07, -4.29 116.36 3.52 44
11 08/20/2024 01:08:20 76.09, 163.07 63.69 08/20/2024 01:09:16 76.07, 162.99 63.66 3.29 56
12 08/20/2024 01:59:04 -76.09, -29.61 116.31 08/20/2024 02:00:14 -76.10, -29.66 116.30 1.40 70
13 08/20/2024 02:49:58 76.43, 136.46 64.05 08/20/2024 02:51:06 76.41, 138.78 64.03 60.61 68



Historial Predications of SNOs between FY3D and NOAA-19
